Time,TemperatureF,DewpointF,PressureIn,WindDirection,WindDirectionDegrees,WindSpeedMPH,WindSpeedGustMPH,Humidity,HourlyPrecipIn,Conditions,Clouds,dailyrainin,SoftwareType,DateUTC
2013-02-06 00:00:00,23.4,20.9,30.03,North,32767,-999.0,0.0,90,0.00,,,0.00,Wunderground v.1.15,2013-02-06 05:00:00,
2013-02-06 00:05:00,23.4,20.9,30.03,North,32767,-999.0,0.0,90,0.00,,,0.00,Wunderground v.1.15,2013-02-06 05:05:00,
2013-02-06 00:10:00,23.4,20.9,30.04,North,32767,-999.0,0.0,90,0.00,,,0.00,Wunderground v.1.15,2013-02-06 05:10:00,
2013-02-06 00:15:00,23.4,20.9,30.04,North,32767,-999.0,0.0,90,0.00,,,0.00,Wunderground v.1.15,2013-02-06 05:15:00,
2013-02-06 00:25:00,23.4,20.9,30.05,North,32767,-999.0,0.0,90,0.00,,,0.00,Wunderground v.1.15,2013-02-06 05:25:00,
2013-02-06 00:30:00,23.4,20.9,30.05,North,32767,-999.0,0.0,90,0.00,,,0.00,Wunderground v.1.15,2013-02-06 05:30:00,
2013-02-06 00:35:00,23.3,20.8,30.05,North,32767,-999.0,0.0,90,0.00,,,0.00,Wunderground v.1.15,2013-02-06 05:35:00,
2013-02-06 00:45:00,23.3,20.8,30.05,North,32767,-999.0,0.0,90,0.00,,,0.00,Wunderground v.1.15,2013-02-06 05:45:00,
2013-02-06 00:55:00,23.0,20.5,30.05,North,32767,-999.0,0.0,90,0.00,,,0.00,Wunderground v.1.15,2013-02-06 05:55:00,
2013-02-06 01:00:00,23.0,20.5,30.06,North,32767,-999.0,0.0,90,0.00,,,0.00,Wunderground v.1.15,2013-02-06 06:00:00,
2013-02-06 01:10:00,22.8,20.3,30.06,North,32767,-999.0,0.0,90,0.00,,,0.00,Wunderground v.1.15,2013-02-06 06:10:00,
2013-02-06 01:20:00,22.9,20.4,30.06,North,32767,-999.0,0.0,90,0.00,,,0.00,Wunderground v.1.15,2013-02-06 06:20:00,
2013-02-06 01:30:00,22.8,20.3,30.06,North,32767,-999.0,0.0,90,0.00,,,0.00,Wunderground v.1.15,2013-02-06 06:30:00,
2013-02-06 01:35:00,22.7,20.5,30.06,North,32767,-999.0,0.0,91,0.00,,,0.00,Wunderground v.1.15,2013-02-06 06:35:00,
2013-02-06 01:45:00,22.7,20.2,30.07,North,32767,-999.0,0.0,90,0.00,,,0.00,Wunderground v.1.15,2013-02-06 06:45:00,
2013-02-06 01:55:00,22.6,20.1,30.07,North,32767,-999.0,0.0,90,0.00,,,0.00,Wunderground v.1.15,2013-02-06 06:55:00,
2013-02-06 02:05:00,22.5,20.3,30.09,North,32767,-999.0,0.0,91,0.00,,,0.00,Wunderground v.1.15,2013-02-06 07:05:00,
2013-02-06 02:15:00,22.5,20.3,30.09,North,32767,-999.0,0.0,91,0.00,,,0.00,Wunderground v.1.15,2013-02-06 07:15:00,
2013-02-06 02:25:00,22.6,20.1,30.09,North,32767,-999.0,0.0,90,0.00,,,0.00,Wunderground v.1.15,2013-02-06 07:25:00,
2013-02-06 02:35:00,22.5,20.3,30.10,North,32767,-999.0,0.0,91,0.00,,,0.00,Wunderground v.1.15,2013-02-06 07:35:00,
2013-02-06 02:40:00,22.4,20.2,30.10,North,32767,-999.0,0.0,91,0.00,,,0.00,Wunderground v.1.15,2013-02-06 07:40:00,
2013-02-06 02:50:00,22.4,20.2,30.11,North,32767,-999.0,0.0,91,0.00,,,0.00,Wunderground v.1.15,2013-02-06 07:50:00,
2013-02-06 02:55:00,22.4,20.2,30.11,North,32767,-999.0,0.0,91,0.00,,,0.00,Wunderground v.1.15,2013-02-06 07:55:00,
2013-02-06 03:05:00,22.2,20.0,30.11,North,32767,-999.0,0.0,91,0.00,,,0.00,Wunderground v.1.15,2013-02-06 08:05:00,
2013-02-06 03:15:00,22.2,20.0,30.10,North,32767,-999.0,0.0,91,0.00,,,0.00,Wunderground v.1.15,2013-02-06 08:15:00,
2013-02-06 03:25:00,21.9,19.7,30.11,North,32767,-999.0,0.0,91,0.00,,,0.00,Wunderground v.1.15,2013-02-06 08:25:00,
2013-02-06 03:35:00,21.7,19.5,30.11,North,32767,-999.0,0.0,91,0.00,,,0.00,Wunderground v.1.15,2013-02-06 08:35:00,
2013-02-06 03:45:00,21.7,19.5,30.12,North,32767,-999.0,0.0,91,0.00,,,0.00,Wunderground v.1.15,2013-02-06 08:45:00,
2013-02-06 03:50:00,21.6,19.4,30.12,North,32767,-999.0,0.0,91,0.00,,,0.00,Wunderground v.1.15,2013-02-06 08:50:00,
2013-02-06 03:55:00,21.5,19.3,30.12,North,32767,-999.0,0.0,91,0.00,,,0.00,Wunderground v.1.15,2013-02-06 08:55:00,
2013-02-06 04:05:00,21.4,19.2,30.13,North,32767,-999.0,0.0,91,0.00,,,0.00,Wunderground v.1.15,2013-02-06 09:05:00,
2013-02-06 04:15:00,21.2,19.0,30.13,North,32767,-999.0,0.0,91,0.00,,,0.00,Wunderground v.1.15,2013-02-06 09:15:00,
2013-02-06 04:25:00,21.3,19.1,30.14,North,32767,-999.0,0.0,91,0.00,,,0.00,Wunderground v.1.15,2013-02-06 09:25:00,
2013-02-06 04:30:00,21.4,19.2,30.14,North,32767,-999.0,0.0,91,0.00,,,0.00,Wunderground v.1.15,2013-02-06 09:30:00,
2013-02-06 04:40:00,21.4,19.2,30.15,North,32767,-999.0,0.0,91,0.00,,,0.00,Wunderground v.1.15,2013-02-06 09:40:00,
2013-02-06 04:45:00,21.3,19.1,30.15,North,32767,-999.0,0.0,91,0.00,,,0.00,Wunderground v.1.15,2013-02-06 09:45:00,
2013-02-06 04:50:00,21.4,19.2,30.15,North,32767,-999.0,0.0,91,0.00,,,0.00,Wunderground v.1.15,2013-02-06 09:50:00,
2013-02-06 04:55:00,21.4,19.2,30.15,North,32767,-999.0,0.0,91,0.00,,,0.00,Wunderground v.1.15,2013-02-06 09:55:00,
2013-02-06 05:05:00,21.2,19.0,30.15,North,32767,-999.0,0.0,91,0.00,,,0.00,Wunderground v.1.15,2013-02-06 10:05:00,
2013-02-06 05:15:00,21.1,18.9,30.15,North,32767,-999.0,0.0,91,0.00,,,0.00,Wunderground v.1.15,2013-02-06 10:15:00,
2013-02-06 05:25:00,21.1,18.9,30.15,North,32767,-999.0,0.0,91,0.00,,,0.00,Wunderground v.1.15,2013-02-06 10:25:00,
2013-02-06 05:35:00,21.1,18.9,30.16,North,32767,-999.0,0.0,91,0.00,,,0.00,Wunderground v.1.15,2013-02-06 10:35:00,
2013-02-06 05:40:00,21.1,18.9,30.16,North,32767,-999.0,0.0,91,0.00,,,0.00,Wunderground v.1.15,2013-02-06 10:40:00,
2013-02-06 05:50:00,21.0,18.8,30.16,North,32767,-999.0,0.0,91,0.00,,,0.00,Wunderground v.1.15,2013-02-06 10:50:00,
2013-02-06 05:55:00,20.9,18.7,30.16,North,32767,-999.0,0.0,91,0.00,,,0.00,Wunderground v.1.15,2013-02-06 10:55:00,
2013-02-06 06:05:00,21.1,18.9,30.16,North,32767,-999.0,0.0,91,0.00,,,0.00,Wunderground v.1.15,2013-02-06 11:05:00,
2013-02-06 06:15:00,20.7,18.5,30.16,North,32767,-999.0,0.0,91,0.00,,,0.00,Wunderground v.1.15,2013-02-06 11:15:00,
2013-02-06 06:25:00,20.4,18.2,30.17,North,32767,-999.0,0.0,91,0.00,,,0.00,Wunderground v.1.15,2013-02-06 11:25:00,
2013-02-06 06:30:00,20.3,18.1,30.17,North,32767,-999.0,0.0,91,0.00,,,0.00,Wunderground v.1.15,2013-02-06 11:30:00,
2013-02-06 06:40:00,20.5,18.5,30.17,North,32767,-999.0,0.0,92,0.00,,,0.00,Wunderground v.1.15,2013-02-06 11:40:00,
2013-02-06 06:45:00,20.5,18.5,30.17,North,32767,-999.0,0.0,92,0.00,,,0.00,Wunderground v.1.15,2013-02-06 11:45:00,
2013-02-06 06:50:00,20.3,18.1,30.18,North,32767,-999.0,0.0,91,0.00,,,0.00,Wunderground v.1.15,2013-02-06 11:50:00,
2013-02-06 06:55:00,20.0,17.8,30.19,North,32767,-999.0,0.0,91,0.00,,,0.00,Wunderground v.1.15,2013-02-06 11:55:00,
2013-02-06 07:05:00,19.3,17.1,30.19,North,32767,-999.0,0.0,91,0.00,,,0.00,Wunderground v.1.15,2013-02-06 12:05:00,
2013-02-06 07:15:00,18.8,16.6,30.19,North,32767,-999.0,0.0,91,0.00,,,0.00,Wunderground v.1.15,2013-02-06 12:15:00,
2013-02-06 07:25:00,18.2,16.3,30.20,North,32767,-999.0,0.0,92,0.00,,,0.00,Wunderground v.1.15,2013-02-06 12:25:00,
2013-02-06 07:35:00,18.1,16.2,30.20,North,32767,-999.0,0.0,92,0.00,,,0.00,Wunderground v.1.15,2013-02-06 12:35:00,
2013-02-06 07:45:00,18.0,16.1,30.21,North,32767,-999.0,0.0,92,0.00,,,0.00,Wunderground v.1.15,2013-02-06 12:45:00,
2013-02-06 07:55:00,17.9,16.0,30.21,North,32767,-999.0,0.0,92,0.00,,,0.00,Wunderground v.1.15,2013-02-06 12:55:00,
2013-02-06 08:05:00,18.5,16.8,30.22,North,32767,-999.0,0.0,93,0.00,,,0.00,Wunderground v.1.15,2013-02-06 13:05:00,
2013-02-06 08:15:00,18.8,17.1,30.22,North,32767,-999.0,0.0,93,0.00,,,0.00,Wunderground v.1.15,2013-02-06 13:15:00,
2013-02-06 08:25:00,18.1,16.2,30.21,North,32767,-999.0,0.0,92,0.00,,,0.00,Wunderground v.1.15,2013-02-06 13:25:00,
2013-02-06 08:35:00,17.4,15.5,30.22,North,32767,-999.0,0.0,92,0.00,,,0.00,Wunderground v.1.15,2013-02-06 13:35:00,
2013-02-06 08:40:00,17.8,15.9,30.22,North,32767,-999.0,0.0,92,0.00,,,0.00,Wunderground v.1.15,2013-02-06 13:40:00,
2013-02-06 08:50:00,17.8,15.9,30.23,West,277,0.0,0.0,92,0.00,,,0.00,Wunderground v.1.15,2013-02-06 13:50:00,
2013-02-06 08:55:00,17.9,16.0,30.23,West,277,0.0,0.0,92,0.00,,,0.00,Wunderground v.1.15,2013-02-06 13:55:00,
2013-02-06 09:00:00,17.7,15.8,30.23,West,277,0.0,0.0,92,0.00,,,0.00,Wunderground v.1.15,2013-02-06 14:00:00,
2013-02-06 09:05:00,17.5,15.6,30.22,West,277,0.0,0.0,92,0.00,,,0.00,Wunderground v.1.15,2013-02-06 14:05:00,
2013-02-06 09:10:00,17.7,15.8,30.22,West,277,0.0,0.0,92,0.00,,,0.00,Wunderground v.1.15,2013-02-06 14:10:00,
2013-02-06 09:20:00,18.0,16.1,30.23,West,277,0.0,0.0,92,0.00,,,0.00,Wunderground v.1.15,2013-02-06 14:20:00,
2013-02-06 09:30:00,18.9,17.0,30.23,West,277,0.0,0.0,92,0.00,,,0.00,Wunderground v.1.15,2013-02-06 14:30:00,
2013-02-06 09:40:00,19.2,17.3,30.24,West,277,0.0,0.0,92,0.00,,,0.00,Wunderground v.1.15,2013-02-06 14:40:00,
2013-02-06 09:45:00,19.2,17.0,30.24,West,277,0.0,0.0,91,0.00,,,0.00,Wunderground v.1.15,2013-02-06 14:45:00,
2013-02-06 09:50:00,19.4,17.2,30.25,West,277,0.0,0.0,91,0.00,,,0.00,Wunderground v.1.15,2013-02-06 14:50:00,
2013-02-06 10:00:00,20.0,17.8,30.25,West,277,0.0,0.0,91,0.00,,,0.00,Wunderground v.1.15,2013-02-06 15:00:00,
2013-02-06 10:10:00,20.7,18.5,30.25,West,277,0.0,0.0,91,0.00,,,0.00,Wunderground v.1.15,2013-02-06 15:10:00,
2013-02-06 10:15:00,20.9,18.4,30.25,West,277,0.0,0.0,90,0.00,,,0.00,Wunderground v.1.15,2013-02-06 15:15:00,
2013-02-06 10:25:00,21.7,19.2,30.26,West,277,0.0,0.0,90,0.00,,,0.00,Wunderground v.1.15,2013-02-06 15:25:00,
2013-02-06 10:35:00,22.2,19.5,30.25,West,277,0.0,0.0,89,0.00,,,0.00,Wunderground v.1.15,2013-02-06 15:35:00,
2013-02-06 10:45:00,22.9,20.1,30.26,West,277,0.0,0.0,89,0.00,,,0.00,Wunderground v.1.15,2013-02-06 15:45:00,
2013-02-06 10:50:00,23.3,20.3,30.26,West,277,0.0,0.0,88,0.00,,,0.00,Wunderground v.1.15,2013-02-06 15:50:00,
2013-02-06 10:55:00,23.7,20.4,30.26,West,277,0.0,0.0,87,0.00,,,0.00,Wunderground v.1.15,2013-02-06 15:55:00,
2013-02-06 11:00:00,24.2,20.9,30.26,West,277,0.0,0.0,87,0.00,,,0.00,Wunderground v.1.15,2013-02-06 16:00:00,
2013-02-06 11:10:00,25.1,21.2,30.26,West,277,0.0,0.0,85,0.00,,,0.00,Wunderground v.1.15,2013-02-06 16:10:00,
2013-02-06 11:15:00,25.6,21.4,30.26,West,274,0.0,0.0,84,0.00,,,0.00,Wunderground v.1.15,2013-02-06 16:15:00,
2013-02-06 11:25:00,26.2,21.5,30.26,West,271,0.0,0.0,82,0.00,,,0.01,Wunderground v.1.15,2013-02-06 16:25:00,
2013-02-06 11:30:00,26.6,21.6,30.26,West,268,0.0,0.0,81,0.00,,,0.01,Wunderground v.1.15,2013-02-06 16:30:00,
2013-02-06 11:40:00,27.2,21.8,30.27,WSW,246,0.0,0.0,80,0.00,,,0.01,Wunderground v.1.15,2013-02-06 16:40:00,
2013-02-06 11:50:00,27.5,22.1,30.27,WSW,244,0.0,0.0,80,0.00,,,0.01,Wunderground v.1.15,2013-02-06 16:50:00,
2013-02-06 12:00:00,28.0,22.6,30.27,SW,224,0.0,0.0,80,0.00,,,0.01,Wunderground v.1.15,2013-02-06 17:00:00,
2013-02-06 12:05:00,28.0,22.3,30.27,SW,223,0.0,0.0,79,0.00,,,0.01,Wunderground v.1.15,2013-02-06 17:05:00,
2013-02-06 12:15:00,28.5,22.8,30.27,SW,221,0.0,0.0,79,0.00,,,0.01,Wunderground v.1.15,2013-02-06 17:15:00,
2013-02-06 12:20:00,28.8,22.8,30.27,SW,221,0.0,0.0,78,0.00,,,0.01,Wunderground v.1.15,2013-02-06 17:20:00,
2013-02-06 12:30:00,28.6,22.9,30.26,SW,218,0.0,0.0,79,0.00,,,0.01,Wunderground v.1.15,2013-02-06 17:30:00,
2013-02-06 12:40:00,29.2,23.2,30.27,SW,218,0.0,0.0,78,0.00,,,0.01,Wunderground v.1.15,2013-02-06 17:40:00,
2013-02-06 12:50:00,29.2,22.9,30.26,SW,218,0.0,0.0,77,0.00,,,0.01,Wunderground v.1.15,2013-02-06 17:50:00,
2013-02-06 12:55:00,29.4,23.4,30.26,SSW,211,0.0,0.0,78,0.00,,,0.01,Wunderground v.1.15,2013-02-06 17:55:00,
2013-02-06 13:05:00,29.8,23.2,30.25,SSW,211,0.0,0.0,76,0.00,,,0.02,Wunderground v.1.15,2013-02-06 18:05:00,
2013-02-06 13:15:00,29.9,23.3,30.25,SSW,211,0.0,0.0,76,0.00,,,0.02,Wunderground v.1.15,2013-02-06 18:15:00,
2013-02-06 13:25:00,29.8,23.2,30.25,SSW,211,0.0,0.0,76,0.00,,,0.03,Wunderground v.1.15,2013-02-06 18:25:00,
2013-02-06 13:35:00,29.8,23.2,30.25,SSW,213,0.0,0.0,76,0.00,,,0.03,Wunderground v.1.15,2013-02-06 18:35:00,
2013-02-06 13:45:00,30.3,23.6,30.25,SSW,213,0.0,0.0,76,0.00,,,0.04,Wunderground v.1.15,2013-02-06 18:45:00,
2013-02-06 13:55:00,30.9,23.9,30.24,SSW,213,0.0,0.0,75,0.00,,,0.04,Wunderground v.1.15,2013-02-06 18:55:00,
2013-02-06 14:05:00,31.5,24.5,30.25,SSW,213,0.0,0.0,75,0.00,,,0.04,Wunderground v.1.15,2013-02-06 19:05:00,
2013-02-06 14:15:00,31.3,23.6,30.24,SSW,213,0.0,0.0,73,0.00,,,0.05,Wunderground v.1.15,2013-02-06 19:15:00,
2013-02-06 14:25:00,31.1,24.1,30.23,SSW,213,0.0,0.0,75,0.00,,,0.05,Wunderground v.1.15,2013-02-06 19:25:00,
2013-02-06 14:35:00,31.6,24.3,30.23,SSW,213,0.0,0.0,74,0.04,,,0.06,Wunderground v.1.15,2013-02-06 19:35:00,
2013-02-06 14:40:00,31.7,24.4,30.23,SSW,213,0.0,0.0,74,0.04,,,0.06,Wunderground v.1.15,2013-02-06 19:40:00,
2013-02-06 14:45:00,31.9,24.6,30.22,SSW,213,0.0,0.0,74,0.00,,,0.06,Wunderground v.1.15,2013-02-06 19:45:00,
2013-02-06 14:55:00,31.9,24.2,30.22,SSW,213,0.0,0.0,73,0.00,,,0.07,Wunderground v.1.15,2013-02-06 19:55:00,
2013-02-06 15:05:00,31.3,23.3,30.22,SSW,213,0.0,0.0,72,0.00,,,0.07,Wunderground v.1.15,2013-02-06 20:05:00,
2013-02-06 15:15:00,31.5,23.8,30.22,SSW,213,0.0,0.0,73,0.00,,,0.08,Wunderground v.1.15,2013-02-06 20:15:00,
2013-02-06 15:25:00,32.0,24.3,30.23,SSW,213,0.0,0.0,73,0.00,,,0.08,Wunderground v.1.15,2013-02-06 20:25:00,
2013-02-06 15:35:00,31.8,24.5,30.23,SSW,213,0.0,0.0,74,0.00,,,0.08,Wunderground v.1.15,2013-02-06 20:35:00,
2013-02-06 15:40:00,32.0,24.6,30.23,SSW,213,0.0,0.0,74,0.00,,,0.08,Wunderground v.1.15,2013-02-06 20:40:00,
2013-02-06 15:50:00,32.4,24.7,30.24,SSW,213,0.0,0.0,73,0.00,,,0.09,Wunderground v.1.15,2013-02-06 20:50:00,
2013-02-06 15:55:00,32.1,24.4,30.23,SSW,213,0.0,0.0,73,0.00,,,0.09,Wunderground v.1.15,2013-02-06 20:55:00,
2013-02-06 16:00:00,32.2,24.5,30.23,SSW,213,0.0,0.0,73,0.00,,,0.09,Wunderground v.1.15,2013-02-06 21:00:00,
2013-02-06 16:10:00,33.0,25.6,30.23,SSW,213,0.0,0.0,74,0.00,,,0.09,Wunderground v.1.15,2013-02-06 21:10:00,
2013-02-06 16:20:00,32.8,25.1,30.24,SSW,213,0.0,0.0,73,0.00,,,0.10,Wunderground v.1.15,2013-02-06 21:20:00,
2013-02-06 16:25:00,32.6,24.9,30.24,SSW,213,0.0,0.0,73,0.00,,,0.10,Wunderground v.1.15,2013-02-06 21:25:00,
2013-02-06 16:35:00,32.2,24.8,30.24,SSW,213,0.0,0.0,74,0.00,,,0.10,Wunderground v.1.15,2013-02-06 21:35:00,
2013-02-06 16:45:00,32.1,24.7,30.23,SSW,213,0.0,0.0,74,0.00,,,0.10,Wunderground v.1.15,2013-02-06 21:45:00,
2013-02-06 16:55:00,32.1,24.7,30.23,SSW,213,0.0,0.0,74,0.00,,,0.10,Wunderground v.1.15,2013-02-06 21:55:00,
2013-02-06 17:05:00,32.7,25.3,30.23,SSW,213,0.0,0.0,74,0.00,,,0.11,Wunderground v.1.15,2013-02-06 22:05:00,
2013-02-06 17:10:00,32.6,24.6,30.23,SSW,213,0.0,0.0,72,0.00,,,0.11,Wunderground v.1.15,2013-02-06 22:10:00,
2013-02-06 17:20:00,31.9,23.6,30.23,SSW,213,0.0,0.0,71,0.00,,,0.11,Wunderground v.1.15,2013-02-06 22:20:00,
2013-02-06 17:30:00,31.0,23.0,30.23,SSW,213,0.0,0.0,72,0.00,,,0.11,Wunderground v.1.15,2013-02-06 22:30:00,
2013-02-06 17:40:00,30.2,22.9,30.23,SSW,213,0.0,0.0,74,0.00,,,0.11,Wunderground v.1.15,2013-02-06 22:40:00,
2013-02-06 17:50:00,29.5,22.6,30.23,SSW,213,0.0,0.0,75,0.00,,,0.11,Wunderground v.1.15,2013-02-06 22:50:00,
2013-02-06 17:55:00,29.2,22.9,30.23,SSW,213,0.0,0.0,77,0.00,,,0.11,Wunderground v.1.15,2013-02-06 22:55:00,
2013-02-06 18:05:00,28.8,22.5,30.24,North,32767,-999.0,0.0,77,0.00,,,0.11,Wunderground v.1.15,2013-02-06 23:05:00,
2013-02-06 18:15:00,29.0,22.4,30.24,North,32767,-999.0,0.0,76,0.00,,,0.11,Wunderground v.1.15,2013-02-06 23:15:00,
2013-02-06 18:25:00,28.9,22.6,30.25,North,32767,-999.0,0.0,77,0.00,,,0.11,Wunderground v.1.15,2013-02-06 23:25:00,
2013-02-06 18:35:00,28.8,22.5,30.25,North,32767,-999.0,0.0,77,0.00,,,0.11,Wunderground v.1.15,2013-02-06 23:35:00,
2013-02-06 18:45:00,28.8,22.5,30.25,North,32767,-999.0,0.0,77,0.00,,,0.11,Wunderground v.1.15,2013-02-06 23:45:00,
2013-02-06 18:50:00,28.8,22.5,30.24,North,32767,-999.0,0.0,77,0.00,,,0.11,Wunderground v.1.15,2013-02-06 23:50:00,
2013-02-06 18:55:00,28.7,22.4,30.24,North,32767,-999.0,0.0,77,0.00,,,0.11,Wunderground v.1.15,2013-02-06 23:55:00,
2013-02-06 19:05:00,28.7,22.4,30.23,North,32767,-999.0,0.0,77,0.00,,,0.11,Wunderground v.1.15,2013-02-07 00:05:00,
2013-02-06 19:15:00,28.7,22.1,30.23,North,32767,-999.0,0.0,76,0.00,,,0.11,Wunderground v.1.15,2013-02-07 00:15:00,
2013-02-06 19:20:00,28.9,22.3,30.23,North,32767,-999.0,0.0,76,0.00,,,0.11,Wunderground v.1.15,2013-02-07 00:20:00,
2013-02-06 19:25:00,28.7,21.8,30.23,North,32767,-999.0,0.0,75,0.00,,,0.11,Wunderground v.1.15,2013-02-07 00:25:00,
2013-02-06 19:35:00,28.0,21.7,30.23,North,32767,-999.0,0.0,77,0.00,,,0.11,Wunderground v.1.15,2013-02-07 00:35:00,
2013-02-06 19:45:00,27.9,21.6,30.23,North,32767,-999.0,0.0,77,0.00,,,0.11,Wunderground v.1.15,2013-02-07 00:45:00,
2013-02-06 19:55:00,28.1,22.1,30.23,North,32767,-999.0,0.0,78,0.00,,,0.11,Wunderground v.1.15,2013-02-07 00:55:00,
2013-02-06 20:00:00,28.3,22.0,30.23,North,32767,-999.0,0.0,77,0.00,,,0.11,Wunderground v.1.15,2013-02-07 01:00:00,
2013-02-06 20:05:00,28.5,21.9,30.22,North,32767,-999.0,0.0,76,0.00,,,0.11,Wunderground v.1.15,2013-02-07 01:05:00,
2013-02-06 20:15:00,28.8,21.9,30.22,North,32767,-999.0,0.0,75,0.00,,,0.11,Wunderground v.1.15,2013-02-07 01:15:00,
2013-02-06 20:20:00,28.8,21.9,30.22,North,32767,-999.0,0.0,75,0.00,,,0.11,Wunderground v.1.15,2013-02-07 01:20:00,
2013-02-06 20:25:00,28.8,21.9,30.22,North,32767,-999.0,0.0,75,0.00,,,0.11,Wunderground v.1.15,2013-02-07 01:25:00,
2013-02-06 20:35:00,28.8,22.2,30.21,North,32767,-999.0,0.0,76,0.00,,,0.11,Wunderground v.1.15,2013-02-07 01:35:00,
2013-02-06 20:40:00,28.9,22.0,30.21,North,32767,-999.0,0.0,75,0.00,,,0.11,Wunderground v.1.15,2013-02-07 01:40:00,
2013-02-06 20:45:00,28.7,22.1,30.20,North,32767,-999.0,0.0,76,0.00,,,0.11,Wunderground v.1.15,2013-02-07 01:45:00,
2013-02-06 20:55:00,28.4,22.1,30.20,North,32767,-999.0,0.0,77,0.00,,,0.11,Wunderground v.1.15,2013-02-07 01:55:00,
2013-02-06 21:00:00,28.4,22.4,30.20,North,32767,-999.0,0.0,78,0.00,,,0.11,Wunderground v.1.15,2013-02-07 02:00:00,
2013-02-06 21:05:00,28.3,22.3,30.20,North,32767,-999.0,0.0,78,0.00,,,0.11,Wunderground v.1.15,2013-02-07 02:05:00,
2013-02-06 21:15:00,28.5,22.5,30.20,North,32767,-999.0,0.0,78,0.00,,,0.11,Wunderground v.1.15,2013-02-07 02:15:00,
2013-02-06 21:25:00,28.5,22.5,30.20,North,32767,-999.0,0.0,78,0.00,,,0.11,Wunderground v.1.15,2013-02-07 02:25:00,
2013-02-06 21:35:00,28.6,22.6,30.20,North,32767,-999.0,0.0,78,0.00,,,0.11,Wunderground v.1.15,2013-02-07 02:35:00,
2013-02-06 21:45:00,28.5,22.5,30.21,North,32767,-999.0,0.0,78,0.00,,,0.11,Wunderground v.1.15,2013-02-07 02:45:00,
2013-02-06 21:55:00,28.6,22.3,30.21,North,32767,-999.0,0.0,77,0.00,,,0.11,Wunderground v.1.15,2013-02-07 02:55:00,
2013-02-06 22:00:00,28.7,22.4,30.21,North,32767,-999.0,0.0,77,0.00,,,0.11,Wunderground v.1.15,2013-02-07 03:00:00,
2013-02-06 22:05:00,28.7,22.4,30.21,North,32767,-999.0,0.0,77,0.00,,,0.11,Wunderground v.1.15,2013-02-07 03:05:00,
2013-02-06 22:15:00,28.9,22.3,30.21,North,32767,-999.0,0.0,76,0.00,,,0.11,Wunderground v.1.15,2013-02-07 03:15:00,
2013-02-06 22:20:00,29.0,22.4,30.22,North,32767,-999.0,0.0,76,0.00,,,0.11,Wunderground v.1.15,2013-02-07 03:20:00,
2013-02-06 22:30:00,28.7,22.4,30.23,North,32767,-999.0,0.0,77,0.00,,,0.11,Wunderground v.1.15,2013-02-07 03:30:00,
2013-02-06 22:35:00,28.5,22.5,30.22,North,32767,-999.0,0.0,78,0.00,,,0.11,Wunderground v.1.15,2013-02-07 03:35:00,
2013-02-06 22:45:00,28.4,22.4,30.21,North,32767,-999.0,0.0,78,0.00,,,0.11,Wunderground v.1.15,2013-02-07 03:45:00,
2013-02-06 22:55:00,28.3,22.6,30.21,North,32767,-999.0,0.0,79,0.00,,,0.11,Wunderground v.1.15,2013-02-07 03:55:00,
2013-02-06 23:05:00,27.9,22.2,30.21,North,32767,-999.0,0.0,79,0.00,,,0.11,Wunderground v.1.15,2013-02-07 04:05:00,
2013-02-06 23:15:00,27.6,21.9,30.21,North,32767,-999.0,0.0,79,0.00,,,0.11,Wunderground v.1.15,2013-02-07 04:15:00,
2013-02-06 23:25:00,27.8,22.1,30.21,North,32767,-999.0,0.0,79,0.00,,,0.11,Wunderground v.1.15,2013-02-07 04:25:00,
2013-02-06 23:35:00,27.6,21.9,30.21,North,32767,-999.0,0.0,79,0.00,,,0.11,Wunderground v.1.15,2013-02-07 04:35:00,
2013-02-06 23:45:00,27.6,22.2,30.21,North,32767,-999.0,0.0,80,0.00,,,0.11,Wunderground v.1.15,2013-02-07 04:45:00,
2013-02-06 23:55:00,27.5,22.1,30.21,North,32767,-999.0,0.0,80,0.00,,,0.11,Wunderground v.1.15,2013-02-07 04:55:00,